QPF
0.00 0.00 0.00 0.00 0.00 0.00 0.00 0.00 0.00 0.00 0.00 0.00 0.00 0.00 0.00 0.00 0.00 0.00 0.00 0.00 0.00 0.00 0.00 0.00 0.00 0.00 0.01 0.01 0.01 0.01 0.01 0.01 0.01 0.01 0.01 0.02 0.01 0.01 0.01 0.00 0.01 0.01 0.01 0.01 0.01 0.01 0.01 0.01 0.02
0.00 0.00 0.00 0.00 0.00 0.00 0.00 0.00 0.00 0.00 0.00 0.00 0.00 0.00 0.00 0.00 0.00 0.00 0.00 0.00 0.00 0.00 0.00 0.00 0.00 0.00 0.01 0.01 0.00 0.01 0.01 0.01 0.01 0.01 0.01 0.02 0.02 0.01 0.01 0.01 0.01 0.01 0.01 0.01 0.01 0.01 0.01 0.01 0.01
0.00 0.00 0.00 0.00 0.00 0.00 0.00 0.00 0.00 0.00 0.00 0.00 0.00 0.00 0.00 0.00 0.00 0.00 0.00 0.00 0.00 0.00 0.00 0.00 0.00 0.00 0.00 0.00 0.00 0.00 0.00 0.01 0.01 0.01 0.01 0.01 0.03 0.02 0.01 0.01 0.02 0.01 0.01 0.00 0.00 0.00 0.01 0.02 0.01
0.00 0.00 0.00 0.00 0.00 0.00 0.00 0.00 0.00 0.00 0.00 0.00 0.00 0.00 0.00 0.00 0.00 0.00 0.00 0.00 0.00 0.00 0.00 0.00 0.00 0.00 0.00 0.00 0.00 0.00 0.00 0.00 0.01 0.01 0.01 0.01 0.02 0.02 0.02 0.01 0.02 0.01 0.01 0.00 0.00 0.00 0.00 0.01 0.01
0.01 0.00 0.00 0.00 0.00 0.00 0.00 0.00 0.00 0.00 0.00 0.00 0.00 0.00 0.00 0.00 0.00 0.00 0.00 0.00 0.00 0.00 0.00 0.00 0.00 0.00 0.00 0.00 0.00 0.00 0.00 0.00 0.00 0.00 0.00 0.01 0.01 0.02 0.02 0.02 0.02 0.02 0.02 0.01 0.00 0.00 0.00 0.00 0.00
0.01 0.00 0.00 0.00 0.00 0.00 0.00 0.00 0.00 0.00 0.00 0.00 0.00 0.00 0.00 0.00 0.00 0.00 0.00 0.00 0.00 0.00 0.00 0.00 0.00 0.00 0.00 0.00 0.00 0.00 0.00 0.00 0.00 0.00 0.00 0.01 0.01 0.01 0.01 0.01 0.01 0.01 0.01 0.01 0.01 0.00 0.00 0.00 0.00
0.01 0.00 0.00 0.00 0.00 0.00 0.00 0.00 0.00 0.00 0.00 0.00 0.00 0.00 0.00 0.00 0.00 0.00 0.00 0.00 0.00 0.00 0.00 0.00 0.00 0.00 0.00 0.00 0.00 0.00 0.00 0.00 0.00 0.00 0.00 0.00 0.00 0.00 0.00 0.01 0.01 0.00 0.01 0.01 0.01 0.01 0.01 0.00 0.00
0.01 0.00 0.00 0.00 0.00 0.00 0.00 0.00 0.00 0.00 0.00 0.00 0.00 0.00 0.00 0.00 0.00 0.00 0.00 0.00 0.01 0.01 0.00 0.00 0.00 0.00 0.00 0.00 0.00 0.00 0.00 0.00 0.00 0.00 0.00 0.00 0.00 0.00 0.00 0.00 0.00 0.00 0.00 0.01 0.01 0.01 0.01 0.01 0.00
0.01 0.01 0.00 0.00 0.00 0.00 0.00 0.00 0.00 0.00 0.00 0.00 0.00 0.00 0.00 0.00 0.00 0.00 0.00 0.00 0.01 0.01 0.01 0.00 0.00 0.00 0.00 0.00 0.00 0.00 0.00 0.00 0.00 0.00 0.00 0.00 0.00 0.00 0.00 0.00 0.00 0.00 0.00 0.00 0.01 0.01 0.01 0.01 0.00
0.02 0.01 0.00 0.00 0.00 0.00 0.00 0.00 0.00 0.00 0.00 0.00 0.00 0.00 0.00 0.00 0.01 0.00 0.00 0.00 0.00 0.01 0.01 0.00 0.00 0.00 0.00 0.00 0.00 0.00 0.00 0.00 0.00 0.00 0.00 0.00 0.00 0.00 0.01 0.01 0.01 0.00 0.00 0.01 0.01 0.01 0.01 0.00 0.00
0.01 0.00 0.00 0.00 0.00 0.00 0.00 0.00 0.00 0.00 0.00 0.00 0.00 0.00 0.00 0.00 0.00 0.00 0.01 0.01 0.00 0.01 0.01 0.01 0.01 0.01 0.00 0.00 0.00 0.00 0.00 0.00 0.00 0.00 0.00 0.00 0.00 0.00 0.00 0.01 0.01 0.01 0.01 0.01 0.01 0.01 0.00 0.00 0.00
0.01 0.00 0.00 0.00 0.00 0.00 0.00 0.00 0.00 0.00 0.00 0.00 0.00 0.00 0.00 0.00 0.00 0.00 0.00 0.00 0.01 0.01 0.01 0.02 0.02 0.02 0.01 0.00 0.00 0.00 0.00 0.00 0.01 0.00 0.00 0.01 0.00 0.00 0.00 0.00 0.01 0.01 0.01 0.00 0.00 0.00 0.00 0.01 0.01
0.01 0.00 0.00 0.00 0.00 0.00 0.00 0.00 0.00 0.00 0.00 0.00 0.00 0.00 0.00 0.00 0.00 0.00 0.00 0.00 0.00 0.01 0.01 0.02 0.02 0.02 0.02 0.01 0.01 0.00 0.00 0.00 0.00 0.00 0.00 0.00 0.00 0.00 0.00 0.00 0.00 0.00 0.01 0.01 0.00 0.00 0.00 0.00 0.00
0.01 0.00 0.00 0.00 0.00 0.00 0.00 0.00 0.00 0.00 0.00 0.00 0.00 0.00 0.00 0.00 0.00 0.00 0.00 0.00 0.00 0.00 0.01 0.01 0.01 0.01 0.01 0.01 0.00 0.01 0.00 0.00 0.00 0.00 0.00 0.00 0.00 0.00 0.00 0.00 0.00 0.00 0.00 0.00 0.00 0.00 0.00 0.00 0.00
0.00 0.00 0.00 0.00 0.00 0.00 0.00 0.00 0.00 0.00 0.00 0.00 0.00 0.00 0.00 0.00 0.00 0.00 0.00 0.00 0.00 0.00 0.00 0.01 0.01 0.01 0.00 0.00 0.01 0.01 0.00 0.00 0.00 0.00 0.00 0.00 0.00 0.00 0.00 0.00 0.00 0.00 0.00 0.00 0.00 0.00 0.00 0.00 0.00
0.01 0.01 0.01 0.00 0.00 0.00 0.00 0.00 0.00 0.00 0.00 0.00 0.00 0.00 0.00 0.00 0.00 0.00 0.00 0.00 0.00 0.00 0.00 0.00 0.01 0.01 0.00 0.00 0.01 0.01 0.00 0.00 0.00 0.00 0.00 0.00 0.00 0.00 0.00 0.00 0.00 0.00 0.00 0.00 0.00 0.00 0.00 0.00 0.00
0.01 0.01 0.01 0.00 0.00 0.00 0.00 0.00 0.00 0.00 0.00 0.00 0.00 0.00 0.00 0.00 0.00 0.00 0.00 0.00 0.00 0.00 0.00 0.00 0.00 0.00 0.00 0.00 0.01 0.01 0.00 0.01 0.00 0.00 0.00 0.00 0.00 0.00 0.00 0.00 0.00 0.00 0.00 0.00 0.00 0.00 0.00 0.00 0.01
0.01 0.00 0.00 0.00 0.00 0.00 0.00 0.00 0.00 0.00 0.00 0.00 0.00 0.00 0.00 0.00 0.00 0.00 0.00 0.00 0.00 0.00 0.00 0.00 0.00 0.01 0.00 0.01 0.01 0.01 0.00 0.01 0.01 0.00 0.00 0.01 0.01 0.00 0.00 0.00 0.00 0.00 0.00 0.00 0.00 0.00 0.00 0.01 0.01
0.00 0.00 0.00 0.00 0.00 0.00 0.00 0.00 0.00 0.00 0.00 0.00 0.00 0.00 0.00 0.00 0.00 0.00 0.00 0.00 0.00 0.00 0.00 0.00 0.00 0.00 0.01 0.01 0.01 0.00 0.00 0.01 0.01 0.01 0.00 0.01 0.01 0.00 0.00 0.01 0.01 0.00 0.00 0.00 0.00 0.00 0.00 0.00 0.00
0.01 0.01 0.00 0.00 0.00 0.00 0.00 0.00 0.00 0.00 0.00 0.00 0.00 0.00 0.00 0.00 0.00 0.00 0.00 0.00 0.00 0.00 0.00 0.00 0.00 0.00 0.00 0.00 0.00 0.00 0.01 0.01 0.01 0.01 0.01 0.01 0.01 0.01 0.00 0.00 0.01 0.00 0.00 0.00 0.00 0.00 0.00 0.00 0.00
0.02 0.01 0.01 0.01 0.00 0.00 0.00 0.00 0.00 0.00 0.00 0.00 0.00 0.00 0.00 0.00 0.00 0.00 0.00 0.00 0.00 0.00 0.00 0.00 0.00 0.00 0.00 0.00 0.00 0.01 0.01 0.01 0.00 0.00 0.00 0.01 0.02 0.02 0.01 0.01 0.01 0.00 0.00 0.00 0.00 0.00 0.00 0.00 0.00
0.03 0.02 0.01 0.01 0.01 0.01 0.00 0.00 0.00 0.00 0.00 0.00 0.00 0.00 0.00 0.00 0.00 0.00 0.00 0.00 0.00 0.00 0.00 0.00 0.00 0.00 0.00 0.00 0.00 0.00 0.00 0.00 0.00 0.00 0.00 0.00 0.01 0.01 0.01 0.01 0.01 0.01 0.01 0.01 0.00 0.00 0.00 0.00 0.00
0.02 0.02 0.02 0.01 0.01 0.01 0.00 0.00 0.00 0.00 0.00 0.00 0.00 0.00 0.00 0.00 0.00 0.00 0.00 0.00 0.00 0.00 0.00 0.00 0.00 0.00 0.00 0.00 0.00 0.00 0.00 0.00 0.00 0.00 0.00 0.00 0.00 0.00 0.00 0.01 0.01 0.01 0.00 0.01 0.01 0.00 0.00 0.00 0.00
0.02 0.02 0.03 0.03 0.04 0.03 0.01 0.00 0.00 0.00 0.00 0.00 0.00 0.00 0.00 0.00 0.00 0.00 0.00 0.00 0.00 0.00 0.00 0.00 0.00 0.00 0.00 0.00 0.00 0.00 0.00 0.00 0.00 0.00 0.00 0.00 0.00 0.00 0.01 0.01 0.01 0.01 0.01 0.00 0.00 0.00 0.00 0.00 0.00
0.03 0.05 0.09 0.10 0.09 0.04 0.00 0.00 0.01 0.01 0.00 0.00 0.00 0.00 0.00 0.00 0.00 0.00 0.00 0.00 0.00 0.00 0.00 0.00 0.00 0.00 0.00 0.00 0.00 0.00 0.00 0.00 0.00 0.00 0.00 0.00 0.00 0.00 0.00 0.01 0.01 0.01 0.01 0.01 0.01 0.01 0.01 0.00 0.00
0.05 0.04 0.05 0.05 0.03 0.01 0.00 0.00 0.01 0.00 0.00 0.00 0.00 0.00 0.00 0.00 0.00 0.00 0.00 0.00 0.00 0.00 0.00 0.00 0.00 0.00 0.00 0.00 0.00 0.00 0.00 0.00 0.00 0.00 0.00 0.00 0.00 0.00 0.00 0.01 0.01 0.01 0.01 0.01 0.01 0.02 0.02 0.01 0.00
0.05 0.04 0.02 0.03 0.02 0.01 0.00 0.00 0.00 0.00 0.00 0.00 0.00 0.00 0.00 0.00 0.00 0.00 0.00 0.00 0.00 0.00 0.00 0.00 0.00 0.00 0.00 0.00 0.00 0.00 0.00 0.00 0.00 0.00 0.00 0.00 0.00 0.00 0.00 0.01 0.01 0.01 0.02 0.02 0.01 0.01 0.02 0.02 0.01
0.04 0.04 0.03 0.05 0.03 0.01 0.00 0.00 0.00 0.00 0.00 0.00 0.00 0.00 0.00 0.00 0.00 0.00 0.00 0.00 0.00 0.00 0.00 0.00 0.00 0.00 0.00 0.00 0.00 0.00 0.00 0.00 0.00 0.00 0.00 0.00 0.00 0.00 0.00 0.01 0.01 0.01 0.02 0.02 0.02 0.02 0.01 0.02 0.01
0.04 0.05 0.05 0.04 0.03 0.01 0.00 0.00 0.00 0.00 0.00 0.00 0.00 0.00 0.00 0.00 0.00 0.00 0.00 0.00 0.00 0.00 0.00 0.00 0.00 0.00 0.00 0.00 0.00 0.00 0.00 0.00 0.00 0.00 0.01 0.01 0.01 0.00 0.00 0.00 0.01 0.02 0.02 0.02 0.02 0.02 0.02 0.02 0.01
0.04 0.03 0.04 0.05 0.02 0.01 0.01 0.00 0.00 0.00 0.00 0.00 0.00 0.00 0.00 0.00 0.00 0.00 0.00 0.00 0.00 0.00 0.00 0.00 0.00 0.01 0.01 0.00 0.00 0.00 0.00 0.00 0.00 0.00 0.00 0.01 0.01 0.01 0.01 0.01 0.01 0.01 0.03 0.03 0.02 0.02 0.02 0.02 0.01
MSLP
1012.44 1013.20 1014.10 1014.96 1015.62 1015.95 1015.87 1015.40 1014.61 1013.63 1012.64 1011.78 1011.15 1010.79 1010.69 1010.77 1010.93 1011.09 1011.18 1011.18 1011.10 1011.01 1010.96 1011.02 1011.22 1011.53 1011.94 1012.38 1012.80 1013.17 1013.45 1013.67 1013.86 1014.04 1014.27 1014.54 1014.85 1015.19 1015.52 1015.80 1016.03 1016.20 1016.31 1016.39 1016.47 1016.56 1016.66 1016.78 1016.90
1012.82 1013.70 1014.64 1015.45 1015.99 1016.13 1015.83 1015.13 1014.13 1013.00 1011.92 1011.02 1010.39 1010.08 1010.03 1010.17 1010.38 1010.59 1010.71 1010.75 1010.72 1010.68 1010.70 1010.83 1011.09 1011.47 1011.94 1012.43 1012.90 1013.30 1013.62 1013.88 1014.09 1014.30 1014.54 1014.81 1015.12 1015.43 1015.74 1016.00 1016.20 1016.36 1016.46 1016.55 1016.63 1016.71 1016.81 1016.92 1017.03
1013.24 1014.17 1015.08 1015.80 1016.17 1016.11 1015.60 1014.72 1013.58 1012.36 1011.25 1010.36 1009.79 1009.53 1009.53 1009.71 1009.96 1010.18 1010.33 1010.39 1010.40 1010.42 1010.50 1010.70 1011.03 1011.47 1011.98 1012.51 1013.00 1013.43 1013.77 1014.05 1014.28 1014.50 1014.74 1015.00 1015.29 1015.58 1015.85 1016.08 1016.27 1016.42 1016.54 1016.64 1016.73 1016.84 1016.95 1017.06 1017.16
1013.68 1014.59 1015.41 1015.97 1016.15 1015.90 1015.22 1014.21 1013.01 1011.79 1010.71 1009.90 1009.40 1009.21 1009.27 1009.48 1009.73 1009.96 1010.11 1010.19 1010.24 1010.30 1010.45 1010.70 1011.08 1011.56 1012.10 1012.64 1013.13 1013.55 1013.89 1014.17 1014.40 1014.63 1014.86 1015.12 1015.38 1015.64 1015.89 1016.10 1016.28 1016.44 1016.57 1016.69 1016.82 1016.95 1017.09 1017.21 1017.32
1014.10 1014.92 1015.59 1015.96 1015.95 1015.53 1014.73 1013.66 1012.47 1011.32 1010.36 1009.66 1009.27 1009.16 1009.26 1009.48 1009.73 1009.94 1010.09 1010.18 1010.26 1010.37 1010.56 1010.87 1011.28 1011.77 1012.29 1012.80 1013.27 1013.66 1013.98 1014.24 1014.47 1014.70 1014.93 1015.18 1015.43 1015.68 1015.91 1016.11 1016.29 1016.45 1016.60 1016.76 1016.92 1017.09 1017.24 1017.38 1017.49
1014.45 1015.13 1015.61 1015.78 1015.59 1015.03 1014.17 1013.12 1012.02 1011.01 1010.20 1009.65 1009.38 1009.35 1009.49 1009.71 1009.93 1010.12 1010.25 1010.34 1010.44 1010.59 1010.83 1011.16 1011.58 1012.05 1012.54 1013.00 1013.40 1013.74 1014.03 1014.27 1014.50 1014.73 1014.98 1015.23 1015.49 1015.73 1015.96 1016.16 1016.33 1016.51 1016.68 1016.86 1017.05 1017.24 1017.42 1017.57 1017.68
1014.70 1015.20 1015.47 1015.44 1015.10 1014.46 1013.60 1012.63 1011.67 1010.84 1010.21 1009.83 1009.68 1009.72 1009.87 1010.07 1010.25 1010.40 1010.51 1010.60 1010.72 1010.91 1011.17 1011.52 1011.92 1012.36 1012.79 1013.18 1013.52 1013.80 1014.05 1014.28 1014.52 1014.77 1015.05 1015.33 1015.60 1015.85 1016.08 1016.28 1016.45 1016.63 1016.81 1017.00 1017.20 1017.40 1017.58 1017.73 1017.84
1014.82 1015.12 1015.19 1015.00 1014.54 1013.86 1013.05 1012.20 1011.42 1010.78 1010.35 1010.12 1010.07 1010.14 1010.29 1010.44 1010.58 1010.68 1010.76 1010.86 1011.00 1011.21 1011.49 1011.84 1012.23 1012.62 1012.99 1013.31 1013.58 1013.82 1014.05 1014.28 1014.55 1014.84 1015.16 1015.48 1015.78 1016.05 1016.28 1016.47 1016.64 1016.80 1016.97 1017.16 1017.35 1017.54 1017.72 1017.86 1017.96
1014.78 1014.92 1014.82 1014.49 1013.97 1013.30 1012.57 1011.87 1011.26 1010.82 1010.54 1010.43 1010.44 1010.53 1010.64 1010.73 1010.81 1010.86 1010.92 1011.01 1011.17 1011.40 1011.70 1012.05 1012.42 1012.77 1013.08 1013.35 1013.58 1013.79 1014.01 1014.27 1014.58 1014.92 1015.29 1015.66 1015.99 1016.28 1016.51 1016.70 1016.85 1016.99 1017.14 1017.30 1017.48 1017.65 1017.80 1017.92 1018.00
1014.61 1014.61 1014.39 1013.98 1013.44 1012.82 1012.19 1011.63 1011.19 1010.90 1010.74 1010.70 1010.73 1010.79 1010.84 1010.87 1010.87 1010.88 1010.91 1011.00 1011.17 1011.42 1011.73 1012.08 1012.43 1012.75 1013.03 1013.27 1013.48 1013.69 1013.94 1014.24 1014.59 1015.00 1015.42 1015.83 1016.19 1016.49 1016.73 1016.90 1017.04 1017.15 1017.28 1017.41 1017.55 1017.70 1017.82 1017.92 1017.98
1014.35 1014.25 1013.96 1013.53 1013.00 1012.45 1011.94 1011.51 1011.20 1011.01 1010.92 1010.90 1010.91 1010.91 1010.88 1010.82 1010.76 1010.71 1010.72 1010.80 1010.98 1011.24 1011.56 1011.91 1012.25 1012.56 1012.82 1013.05 1013.27 1013.51 1013.79 1014.14 1014.55 1015.01 1015.48 1015.92 1016.31 1016.62 1016.85 1017.02 1017.14 1017.24 1017.35 1017.46 1017.58 1017.70 1017.80 1017.87 1017.92
1014.05 1013.90 1013.60 1013.18 1012.70 1012.24 1011.82 1011.50 1011.27 1011.13 1011.06 1011.01 1010.96 1010.88 1010.76 1010.63 1010.49 1010.40 1010.38 1010.46 1010.63 1010.89 1011.21 1011.56 1011.89 1012.19 1012.46 1012.70 1012.95 1013.23 1013.56 1013.96 1014.42 1014.91 1015.41 1015.87 1016.27 1016.59 1016.82 1016.99 1017.12 1017.22 1017.33 1017.44 1017.55 1017.66 1017.76 1017.82 1017.86
1013.78 1013.63 1013.33 1012.96 1012.56 1012.17 1011.84 1011.58 1011.40 1011.26 1011.16 1011.05 1010.92 1010.75 1010.55 1010.33 1010.14 1010.01 1009.96 1010.02 1010.18 1010.43 1010.73 1011.06 1011.39 1011.69 1011.97 1012.25 1012.54 1012.86 1013.24 1013.68 1014.16 1014.67 1015.17 1015.64 1016.04 1016.36 1016.61 1016.80 1016.95 1017.09 1017.22 1017.36 1017.49 1017.62 1017.72 1017.79 1017.83
1013.60 1013.45 1013.20 1012.88 1012.55 1012.24 1011.97 1011.74 1011.56 1011.39 1011.22 1011.04 1010.81 1010.55 1010.27 1010.00 1009.76 1009.60 1009.52 1009.55 1009.68 1009.89 1010.16 1010.47 1010.78 1011.09 1011.40 1011.71 1012.04 1012.41 1012.83 1013.29 1013.78 1014.28 1014.77 1015.22 1015.62 1015.95 1016.22 1016.45 1016.65 1016.84 1017.04 1017.23 1017.41 1017.57 1017.71 1017.80 1017.87
1013.53 1013.39 1013.18 1012.93 1012.66 1012.40 1012.16 1011.94 1011.72 1011.49 1011.24 1010.96 1010.65 1010.32 1009.98 1009.66 1009.39 1009.20 1009.09 1009.08 1009.16 1009.32 1009.55 1009.82 1010.11 1010.43 1010.76 1011.11 1011.49 1011.90 1012.34 1012.82 1013.30 1013.78 1014.24 1014.66 1015.05 1015.39 1015.69 1015.98 1016.26 1016.53 1016.80 1017.07 1017.32 1017.54 1017.72 1017.86 1017.96
1013.55 1013.44 1013.26 1013.06 1012.84 1012.61 1012.38 1012.12 1011.84 1011.53 1011.19 1010.82 1010.43 1010.03 1009.66 1009.31 1009.03 1008.81 1008.67 1008.61 1008.64 1008.74 1008.90 1009.13 1009.41 1009.73 1010.09 1010.48 1010.91 1011.36 1011.83 1012.30 1012.76 1013.21 1013.63 1014.03 1014.40 1014.75 1015.10 1015.45 1015.81 1016.18 1016.54 1016.89 1017.21 1017.50 1017.74 1017.93 1018.08
1013.63 1013.53 1013.39 1013.23 1013.04 1012.83 1012.57 1012.26 1011.90 1011.49 1011.05 1010.58 1010.12 1009.68 1009.27 1008.92 1008.62 1008.38 1008.21 1008.11 1008.08 1008.11 1008.22 1008.41 1008.67 1009.00 1009.40 1009.84 1010.32 1010.81 1011.30 1011.77 1012.21 1012.62 1013.01 1013.38 1013.74 1014.12 1014.51 1014.93 1015.36 1015.81 1016.26 1016.69 1017.08 1017.43 1017.73 1017.97 1018.18
1013.71 1013.63 1013.53 1013.41 1013.24 1013.02 1012.72 1012.34 1011.87 1011.35 1010.79 1010.22 1009.69 1009.20 1008.78 1008.42 1008.12 1007.87 1007.68 1007.53 1007.44 1007.42 1007.48 1007.64 1007.89 1008.24 1008.68 1009.18 1009.71 1010.25 1010.77 1011.24 1011.67 1012.06 1012.42 1012.78 1013.14 1013.53 1013.97 1014.44 1014.94 1015.46 1015.97 1016.45 1016.90 1017.30 1017.64 1017.94 1018.20
1013.72 1013.69 1013.64 1013.56 1013.42 1013.17 1012.82 1012.34 1011.75 1011.09 1010.41 1009.74 1009.13 1008.60 1008.15 1007.79 1007.49 1007.24 1007.02 1006.85 1006.72 1006.65 1006.68 1006.81 1007.07 1007.46 1007.94 1008.50 1009.09 1009.68 1010.24 1010.73 1011.16 1011.54 1011.89 1012.23 1012.60 1013.02 1013.48 1014.00 1014.54 1015.10 1015.65 1016.17 1016.64 1017.07 1017.45 1017.80 1018.12
1013.62 1013.67 1013.70 1013.67 1013.55 1013.29 1012.87 1012.28 1011.56 1010.76 1009.94 1009.15 1008.45 1007.86 1007.39 1007.01 1006.72 1006.47 1006.24 1006.05 1005.89 1005.80 1005.81 1005.94 1006.22 1006.63 1007.17 1007.79 1008.45 1009.09 1009.68 1010.20 1010.65 1011.03 1011.39 1011.74 1012.12 1012.55 1013.04 1013.59 1014.16 1014.73 1015.29 1015.81 1016.30 1016.74 1017.14 1017.53 1017.90
1013.38 1013.54 1013.68 1013.73 1013.65 1013.37 1012.88 1012.19 1011.33 1010.38 1009.41 1008.50 1007.70 1007.05 1006.54 1006.15 1005.86 1005.61 1005.39 1005.18 1005.02 1004.91 1004.91 1005.05 1005.34 1005.79 1006.37 1007.04 1007.75 1008.44 1009.07 1009.62 1010.09 1010.49 1010.86 1011.24 1011.64 1012.10 1012.61 1013.16 1013.74 1014.32 1014.87 1015.39 1015.86 1016.30 1016.73 1017.15 1017.57
1013.00 1013.30 1013.57 1013.72 1013.69 1013.41 1012.87 1012.08 1011.09 1010.00 1008.89 1007.86 1006.96 1006.24 1005.70 1005.29 1004.99 1004.75 1004.53 1004.32 1004.15 1004.05 1004.04 1004.18 1004.48 1004.95 1005.55 1006.25 1006.98 1007.70 1008.36 1008.94 1009.43 1009.86 1010.26 1010.66 1011.10 1011.58 1012.11 1012.68 1013.27 1013.84 1014.38 1014.89 1015.36 1015.81 1016.25 1016.71 1017.19
1012.51 1012.96 1013.36 1013.62 1013.65 1013.39 1012.81 1011.94 1010.86 1009.64 1008.42 1007.29 1006.32 1005.54 1004.96 1004.54 1004.23 1003.99 1003.77 1003.57 1003.39 1003.27 1003.26 1003.38 1003.67 1004.13 1004.72 1005.41 1006.15 1006.87 1007.54 1008.13 1008.64 1009.10 1009.53 1009.97 1010.44 1010.96 1011.52 1012.11 1012.71 1013.29 1013.84 1014.35 1014.83 1015.30 1015.78 1016.28 1016.82
1011.93 1012.52 1013.04 1013.40 1013.49 1013.25 1012.67 1011.76 1010.61 1009.34 1008.05 1006.86 1005.84 1005.03 1004.43 1004.00 1003.68 1003.43 1003.21 1002.99 1002.80 1002.65 1002.60 1002.69 1002.94 1003.35 1003.90 1004.55 1005.25 1005.94 1006.60 1007.19 1007.71 1008.20 1008.66 1009.14 1009.65 1010.21 1010.81 1011.44 1012.06 1012.67 1013.25 1013.79 1014.32 1014.83 1015.37 1015.93 1016.53
1011.31 1011.98 1012.58 1013.01 1013.16 1012.96 1012.39 1011.49 1010.35 1009.06 1007.77 1006.58 1005.57 1004.76 1004.16 1003.73 1003.41 1003.15 1002.90 1002.65 1002.41 1002.22 1002.12 1002.13 1002.31 1002.64 1003.12 1003.69 1004.32 1004.96 1005.58 1006.15 1006.68 1007.18 1007.67 1008.20 1008.76 1009.36 1010.01 1010.68 1011.36 1012.02 1012.65 1013.26 1013.85 1014.45 1015.06 1015.70 1016.38
1010.69 1011.36 1011.99 1012.45 1012.63 1012.46 1011.94 1011.10 1010.02 1008.81 1007.59 1006.47 1005.52 1004.76 1004.19 1003.77 1003.44 1003.15 1002.87 1002.56 1002.26 1002.00 1001.81 1001.73 1001.81 1002.04 1002.40 1002.88 1003.42 1003.99 1004.55 1005.09 1005.61 1006.12 1006.64 1007.20 1007.81 1008.47 1009.17 1009.91 1010.64 1011.38 1012.09 1012.79 1013.48 1014.17 1014.88 1015.62 1016.38
1010.11 1010.71 1011.28 1011.71 1011.89 1011.76 1011.31 1010.57 1009.62 1008.55 1007.49 1006.51 1005.68 1005.02 1004.51 1004.11 1003.77 1003.45 1003.10 1002.72 1002.33 1001.97 1001.67 1001.49 1001.44 1001.56 1001.81 1002.17 1002.62 1003.11 1003.61 1004.11 1004.61 1005.12 1005.67 1006.26 1006.91 1007.62 1008.38 1009.17 1009.99 1010.80 1011.60 1012.40 1013.21 1014.02 1014.84 1015.68 1016.53
1009.62 1010.07 1010.52 1010.86 1011.01 1010.91 1010.54 1009.94 1009.16 1008.31 1007.46 1006.68 1006.03 1005.49 1005.07 1004.71 1004.36 1003.99 1003.56 1003.09 1002.60 1002.12 1001.71 1001.41 1001.26 1001.25 1001.39 1001.65 1002.00 1002.41 1002.86 1003.32 1003.80 1004.32 1004.88 1005.49 1006.17 1006.92 1007.72 1008.57 1009.45 1010.34 1011.24 1012.15 1013.06 1013.99 1014.93 1015.87 1016.80
1009.31 1009.54 1009.80 1010.01 1010.10 1010.00 1009.72 1009.28 1008.72 1008.11 1007.52 1006.99 1006.54 1006.16 1005.83 1005.51 1005.15 1004.72 1004.22 1003.65 1003.05 1002.46 1001.94 1001.53 1001.28 1001.17 1001.22 1001.40 1001.67 1002.02 1002.41 1002.84 1003.30 1003.81 1004.37 1005.00 1005.70 1006.47 1007.31 1008.20 1009.12 1010.08 1011.05 1012.04 1013.05 1014.08 1015.12 1016.15 1017.16
1009.23 1009.21 1009.26 1009.31 1009.29 1009.19 1008.99 1008.70 1008.37 1008.02 1007.70 1007.43 1007.19 1006.98 1006.75 1006.46 1006.09 1005.61 1005.02 1004.35 1003.65 1002.97 1002.36 1001.87 1001.54 1001.37 1001.35 1001.46 1001.68 1001.98 1002.34 1002.74 1003.18 1003.68 1004.24 1004.86 1005.56 1006.34 1007.19 1008.09 1009.05 1010.04 1011.06 1012.12 1013.19 1014.29 1015.39 1016.49 1017.55
Thickness
5720 5722 5723 5716 5701 5689 5694 5712 5729 5739 5746 5756 5758 5756 5750 5747 5746 5743 5758 5765 5764 5762 5760 5759 5757 5756 5755 5754 5753 5752 5752 5751 5750 5749 5749 5748 5747 5747 5746 5745 5744 5743 5743 5742 5741 5740 5739 5738 5737
5715 5717 5711 5701 5687 5681 5694 5714 5727 5740 5749 5755 5755 5752 5747 5746 5753 5755 5758 5761 5762 5760 5758 5756 5755 5754 5753 5751 5750 5750 5749 5748 5747 5746 5745 5745 5744 5744 5743 5742 5741 5740 5739 5738 5738 5737 5736 5735 5734
5710 5710 5698 5688 5682 5685 5702 5722 5730 5743 5751 5752 5747 5748 5745 5744 5752 5754 5758 5759 5758 5756 5754 5753 5751 5750 5749 5748 5747 5746 5746 5745 5744 5743 5742 5742 5741 5740 5739 5738 5737 5736 5736 5735 5734 5733 5732 5732 5731
5701 5695 5688 5680 5685 5698 5712 5725 5733 5739 5746 5748 5744 5737 5743 5751 5754 5756 5757 5756 5753 5751 5750 5749 5748 5747 5746 5745 5744 5743 5742 5741 5740 5740 5739 5738 5737 5737 5736 5735 5734 5733 5732 5731 5730 5729 5729 5728 5727
5692 5682 5675 5674 5686 5702 5715 5725 5732 5733 5737 5740 5738 5731 5735 5747 5753 5753 5752 5751 5749 5746 5746 5745 5744 5744 5743 5741 5741 5740 5739 5738 5737 5736 5735 5734 5734 5733 5732 5731 5730 5729 5728 5727 5726 5725 5725 5724 5723
5677 5672 5664 5668 5684 5702 5714 5724 5728 5729 5731 5734 5732 5726 5729 5742 5745 5746 5747 5746 5745 5743 5742 5741 5740 5740 5739 5738 5737 5736 5735 5734 5733 5732 5731 5731 5730 5729 5728 5727 5726 5725 5724 5723 5722 5721 5720 5719 5719
5668 5664 5664 5673 5682 5694 5711 5721 5721 5722 5725 5729 5731 5720 5724 5733 5740 5742 5742 5740 5740 5739 5737 5736 5736 5735 5734 5734 5733 5732 5731 5730 5729 5728 5727 5727 5726 5725 5724 5723 5722 5721 5720 5719 5718 5717 5716 5715 5714
5669 5662 5666 5672 5680 5692 5710 5717 5721 5721 5722 5730 5731 5718 5718 5729 5735 5735 5734 5733 5733 5732 5732 5732 5731 5731 5730 5729 5728 5728 5727 5726 5725 5724 5723 5722 5721 5721 5720 5719 5718 5717 5716 5715 5714 5713 5712 5711 5709
5667 5654 5658 5672 5681 5693 5706 5709 5716 5723 5721 5724 5727 5727 5730 5731 5730 5727 5725 5724 5724 5725 5726 5727 5726 5726 5725 5725 5724 5723 5722 5721 5720 5719 5719 5718 5717 5716 5715 5714 5713 5712 5711 5710 5709 5708 5707 5706 5704
5654 5648 5663 5679 5687 5692 5699 5702 5707 5710 5709 5712 5716 5721 5726 5725 5723 5720 5719 5718 5718 5719 5721 5722 5722 5721 5720 5720 5719 5718 5718 5717 5716 5715 5714 5713 5712 5711 5710 5709 5709 5708 5707 5705 5704 5703 5702 5701 5699
5651 5653 5665 5676 5685 5690 5692 5696 5702 5701 5699 5706 5709 5712 5715 5716 5716 5715 5715 5715 5716 5717 5717 5717 5718 5717 5716 5715 5714 5713 5713 5712 5711 5710 5710 5708 5707 5706 5705 5704 5703 5702 5701 5700 5699 5698 5696 5695 5694
5646 5655 5663 5669 5678 5682 5684 5689 5692 5696 5701 5709 5711 5712 5711 5710 5710 5711 5711 5712 5712 5712 5713 5713 5714 5713 5712 5711 5710 5709 5709 5708 5707 5706 5705 5704 5702 5701 5700 5699 5698 5697 5696 5695 5693 5692 5691 5690 5689
5639 5648 5657 5664 5669 5673 5677 5680 5684 5689 5698 5702 5703 5704 5705 5705 5706 5707 5709 5709 5709 5708 5709 5709 5710 5709 5708 5707 5706 5705 5704 5704 5703 5702 5701 5700 5698 5696 5695 5694 5693 5692 5690 5689 5688 5686 5685 5684 5683
5636 5641 5647 5654 5659 5665 5667 5672 5676 5684 5690 5692 5695 5695 5697 5699 5701 5701 5702 5703 5704 5704 5705 5705 5705 5705 5705 5703 5702 5701 5700 5699 5698 5697 5696 5695 5694 5692 5690 5688 5687 5686 5685 5684 5682 5681 5679 5678 5676
5630 5629 5634 5644 5650 5656 5659 5659 5670 5680 5681 5683 5686 5689 5690 5693 5696 5698 5700 5700 5701 5701 5701 5701 5701 5701 5700 5699 5698 5697 5696 5695 5693 5692 5691 5690 5689 5687 5686 5683 5682 5680 5679 5678 5676 5674 5673 5671 5669
5616 5614 5617 5635 5642 5647 5645 5648 5667 5672 5672 5674 5677 5680 5683 5687 5691 5693 5696 5697 5697 5697 5696 5697 5697 5695 5695 5694 5693 5692 5691 5690 5688 5687 5686 5685 5683 5682 5680 5678 5676 5675 5673 5671 5669 5667 5665 5663 5661
5598 5599 5609 5623 5635 5638 5637 5643 5659 5666 5667 5668 5671 5673 5676 5680 5684 5687 5690 5692 5693 5693 5692 5691 5691 5690 5689 5688 5687 5686 5685 5684 5683 5681 5680 5679 5677 5676 5674 5672 5670 5668 5666 5664 5662 5659 5656 5654 5652
5588 5595 5605 5612 5626 5628 5630 5638 5651 5657 5660 5661 5664 5667 5671 5674 5679 5683 5685 5686 5687 5687 5687 5686 5685 5684 5683 5682 5680 5678 5677 5676 5676 5675 5674 5673 5671 5669 5667 5665 5663 5661 5659 5656 5654 5651 5648 5645 5644
5591 5594 5599 5609 5620 5620 5623 5631 5641 5648 5652 5653 5656 5661 5665 5670 5675 5677 5679 5679 5680 5680 5680 5680 5679 5678 5677 5674 5672 5670 5669 5669 5668 5668 5667 5666 5664 5662 5660 5658 5656 5654 5651 5648 5645 5642 5639 5636 5634
5582 5585 5590 5602 5613 5613 5614 5622 5632 5640 5646 5651 5654 5657 5661 5664 5666 5669 5671 5672 5674 5674 5674 5674 5673 5672 5672 5671 5669 5666 5664 5662 5662 5661 5659 5658 5657 5655 5653 5651 5648 5645 5642 5639 5637 5634 5629 5626 5624
5574 5578 5584 5590 5600 5605 5606 5611 5622 5634 5641 5647 5651 5655 5658 5660 5662 5663 5664 5665 5666 5667 5668 5669 5667 5667 5666 5665 5662 5659 5655 5653 5651 5651 5650 5650 5649 5647 5646 5643 5640 5637 5634 5631 5628 5625 5621 5616 5613
5565 5580 5582 5584 5581 5580 5591 5588 5612 5625 5631 5639 5642 5646 5650 5654 5656 5658 5659 5659 5660 5661 5662 5662 5661 5660 5659 5658 5655 5652 5649 5645 5645 5644 5642 5641 5640 5639 5637 5635 5632 5629 5625 5622 5619 5616 5613 5609 5604
5565 5576 5576 5576 5572 5570 5578 5577 5600 5616 5622 5632 5637 5640 5644 5647 5650 5652 5654 5655 5654 5654 5654 5654 5653 5652 5652 5650 5648 5645 5642 5640 5637 5635 5633 5632 5631 5629 5628 5626 5623 5620 5616 5613 5610 5607 5603 5600 5595
5561 5562 5560 5557 5556 5557 5571 5570 5589 5606 5622 5629 5632 5635 5638 5640 5642 5644 5646 5646 5645 5644 5645 5645 5644 5643 5642 5641 5639 5637 5635 5632 5628 5626 5624 5622 5621 5619 5618 5616 5613 5610 5607 5604 5600 5597 5594 5590 5586
5549 5544 5538 5538 5537 5550 5567 5569 5589 5610 5621 5627 5629 5631 5632 5633 5634 5635 5635 5636 5635 5635 5635 5635 5635 5634 5633 5632 5630 5629 5627 5625 5622 5619 5616 5613 5611 5609 5608 5606 5603 5600 5597 5594 5590 5587 5583 5580 5576
5542 5542 5535 5535 5537 5543 5558 5561 5586 5607 5616 5622 5625 5625 5624 5625 5626 5627 5628 5628 5627 5626 5626 5626 5625 5624 5623 5622 5621 5619 5618 5615 5613 5610 5608 5605 5603 5601 5599 5596 5593 5590 5586 5583 5580 5576 5573 5569 5566
5534 5535 5540 5532 5531 5535 5546 5561 5582 5600 5605 5610 5612 5613 5614 5616 5617 5617 5618 5618 5617 5616 5616 5616 5615 5614 5613 5612 5611 5609 5608 5606 5603 5601 5598 5596 5594 5591 5588 5585 5582 5579 5576 5572 5569 5565 5562 5558 5554
5531 5532 5527 5524 5524 5532 5544 5553 5567 5584 5591 5597 5600 5602 5605 5606 5606 5606 5607 5607 5606 5606 5605 5605 5605 5604 5602 5602 5601 5600 5597 5596 5593 5590 5587 5585 5583 5580 5577 5574 5571 5567 5564 5561 5557 5554 5550 5547 5543
5519 5523 5523 5521 5520 5524 5534 5551 5573 5577 5583 5587 5589 5591 5594 5595 5595 5594 5594 5595 5594 5594 5593 5593 5592 5592 5591 5590 5590 5588 5586 5584 5582 5579 5576 5574 5571 5569 5566 5563 5559 5555 5552 5549 5546 5542 5538 5535 5531
5515 5518 5515 5515 5515 5516 5522 5543 5569 5567 5573 5576 5576 5579 5581 5582 5582 5581 5581 5581 5581 5581 5581 5581 5580 5580 5579 5578 5577 5575 5574 5572 5569 5566 5564 5562 5559 5557 5554 5551 5547 5543 5540 5537 5533 5529 5526 5523 5520